Flag for Norway Weather past 2 weeks in Kopervik, Norway

Now
55 °F

Broken clouds.


Feels Like: 53 °F
Forecast: 53 / 59 °F
Wind: 8 mph from West

Location: Haugesund / Karmoy

Current Time: Jul 6, 2015 at 9:42:50 AM

Latest Report: Jul 6, 2015 at 8:50 AM


Visibility: N/A

Pressure: 29.71 "Hg

Humidity: 94%

Dew point: 54 °F

Location of KopervikLocation

Historic Weather in Kopervik — Graph

°F

Kopervik temperature yesterday

Maximum temperature yesterday: 63 °F (at 2:50 AM)
Minimum temperature yesterday: 54 °F (at 7:50 PM)
Average temperature yesterday: 59 °F

Past Weeks' High & Low Weather Summary

 TemperatureHumidityPressure
High82 °F (Jul 2, 3:20 PM)100% (Jun 23, 12:50 AM)30.27 "Hg (Jun 23, 12:50 AM)
Low45 °F (Jun 22, 4:50 AM)37% (Jul 2, 3:20 PM)29.68 "Hg (Jun 22, 6:20 PM)
Average57 °F82%30.00 "Hg
* Reported Jun 21 8:20 AM — Jul 6 8:20 AM, Kopervik, Weather by CustomWeather, © 2015

Note: Actual official high and low records may vary slightly from our data, if they occured in-between our weather recording intervals... More about our weather records

Advertising

Kopervik weather history for previous 24 hours

 ConditionsComfort  
Time TempWeatherWind HumidityBarometerVisibility
8:20 AM
Mon, Jul 6
55 °FLight rain. Broken clouds.5 mph88%29.74 "HgN/A
7:50 AM55 °FPartly sunny.6 mph88%29.71 "HgN/A
7:20 AM55 °FBroken clouds.6 mph88%29.74 "HgN/A
6:50 AM54 °FBroken clouds.9 mph100%29.74 "HgN/A
6:20 AM54 °FPartly sunny.7 mph100%29.74 "HgN/A
5:50 AM54 °FBroken clouds.5 mph94%29.74 "HgN/A
4:50 AM54 °FMostly cloudy.5 mph94%29.74 "HgN/A
4:20 AM54 °FLow clouds.7 mph94%29.74 "Hg6 mi
3:50 AM54 °FMostly cloudy.9 mph100%29.74 "Hg4 mi
3:20 AM54 °FLow clouds.9 mph100%29.77 "Hg5 mi
2:50 AM54 °FLight rain. Passing clouds.9 mph100%29.77 "Hg4 mi
2:20 AM54 °FLight rain. Passing clouds.6 mph100%29.80 "Hg4 mi
1:50 AM54 °FLight rain. Mostly cloudy.5 mph100%29.80 "Hg5 mi
1:20 AM54 °FLight rain. Mostly cloudy.6 mph100%29.80 "Hg6 mi
12:50 AM54 °FLight rain. Passing clouds.5 mph100%29.83 "HgN/A
12:20 AM54 °FLight rain. Low clouds.5 mph100%29.83 "HgN/A
11:50 PM
Sun, Jul 5
54 °FFog.5 mph100%29.83 "Hg3 mi
10:50 PM54 °FFog.6 mph100%29.86 "Hg1 mi
10:20 PM54 °FFog.3 mph100%29.86 "Hg0 mi
9:50 PM54 °FFog.6 mph100%29.86 "Hg1 mi
9:20 PM54 °FFog.5 mph94%29.89 "Hg0 mi
8:50 PM54 °FFog.5 mph94%29.89 "Hg0 mi
8:20 PM54 °FFog.5 mph94%29.92 "Hg0 mi
7:50 PM54 °FFog.5 mph94%29.92 "Hg0 mi
7:20 PM57 °FFog.5 mph88%29.92 "Hg0 mi
6:50 PM57 °FFog.5 mph88%29.95 "Hg1 mi
6:20 PM57 °FFog.2 mph94%29.95 "Hg1 mi
5:50 PM57 °FFog.3 mph94%29.98 "Hg1 mi
5:20 PM55 °FFog.8 mph100%29.98 "Hg0 mi
4:50 PM57 °FFog.8 mph94%30.01 "Hg0 mi
4:20 PM59 °FFog.9 mph88%30.01 "Hg1 mi
3:50 PM61 °FFog.7 mph88%30.01 "HgN/A
3:20 PM59 °FScattered clouds.9 mph88%30.01 "HgN/A
2:50 PM57 °FFog.12 mph94%30.04 "Hg1 mi
2:20 PM59 °FScattered clouds.12 mph88%30.04 "Hg1 mi
1:50 PM61 °FScattered clouds.7 mph88%30.04 "HgN/A
1:20 PM59 °FBroken clouds.8 mph94%30.04 "HgN/A
12:50 PM59 °FFog.9 mph94%30.04 "Hg1 mi
12:20 PM59 °FFog.8 mph94%30.04 "Hg1 mi
11:50 AM59 °FFog.9 mph94%30.04 "Hg1 mi
11:20 AM61 °FFog.8 mph94%30.04 "Hg4 mi
10:50 AM59 °FFog.8 mph94%30.04 "Hg1 mi
10:20 AM59 °FFog.10 mph94%30.04 "Hg1 mi
9:50 AM61 °FFog.7 mph88%30.04 "Hg3 mi
9:20 AM61 °FLow clouds.6 mph94%30.04 "Hg4 mi
Weather by CustomWeather, © 2015

See weather overviewHow to use our weather pages